Find Starlink 11305

NORAD ID: 61247 Int'l Des: 2024-175 Owner: SPXS Country: US Constellation: starlink operational
LEOCIRCULAR

实时位置

正在加载3D地球...

关于 Starlink 11305

正在加载描述...

即将过境

Passes for default location (London). Set your location on the main map for personalized predictions.

高度历史

Loading altitude history...

两行轨道根数

1 61247U 24175E 26125.06512306 .00001550 00000-0 17654-4 0 9996
2 61247 53.1597 138.1488 0001224 90.6043 269.5115 15.69706736 92220
Epoch: May 5, 2026 • Age: 27 hours

当前状态

高度 377.4 km
速度 7.68 km/s
星下点 -49.22°S, 79.21°E
发射日期 Sep 25, 2024
运行时间 1.6 years
类型 internet

技术详情

分类 Payload
质量 960.00 kg
干质量 910.00 kg
总质量 960.00 kg
长度 0.30 m
直径 4.10 m
跨度 29.00 m
形状 Box + pan
制造商 SPXS
平台类型 Starlink V2MD
阶段状态 In Orbit
所有者/国家 SPXS/US

Most Searched